When you browse on this site, cookies collect data to enhance your experience and personalize the content and advertising you see.
Visit our Privacy Policy to learn more. By continuing to use the site, you agree to this use of cookies and data.
  • In Hungary
  • List of Countries
  • For 7 days
  • Water Temperature
  • Satellite Maps
  • Weather Map
  • News
  • Weather Widgets
  • user-avatar
    Login

    Hourly Weather Tupikovo

    Today, 25 May, Saturday

    Time Temperature Precipitation Wind Pressure Humidity
    00:00 +10°C° 0 mm 2 mps 740 mmHg 92%
    01:00 +10°C° 0 mm 2 mps 740 mmHg 90%
    02:00 +12°C° 0 mm 2 mps 739 mmHg 92%
    03:00 +12°C° 0 mm 2 mps 739 mmHg 92%
    04:00 +13°C° 0 mm 2 mps 739 mmHg 92%
    05:00 +12°C° 0 mm 3 mps 739 mmHg 91%
    06:00 +12°C° 0 mm 3 mps 738 mmHg 89%
    07:00 +13°C° 0 mm 3 mps 738 mmHg 87%
    08:00 +14°C° 0 mm 4 mps 738 mmHg 84%
    09:00 +15°C° 0.2 mm 4 mps 737 mmHg 82%
    10:00 +17°C° 0.2 mm 4 mps 737 mmHg 80%
    11:00 +18°C° 0.2 mm 4 mps 737 mmHg 77%
    12:00 +19°C° 1.1 mm 4 mps 737 mmHg 77%
    13:00 +19°C° 1.1 mm 4 mps 736 mmHg 77%
    14:00 +20°C° 1.1 mm 4 mps 736 mmHg 77%
    15:00 +20°C° 1.2 mm 4 mps 735 mmHg 80%
    16:00 +19°C° 1.2 mm 3 mps 735 mmHg 82%
    17:00 +19°C° 1.2 mm 3 mps 734 mmHg 84%
    18:00 +18°C° 0.1 mm 3 mps 734 mmHg 88%
    19:00 +16°C° 0.1 mm 2 mps 734 mmHg 91%
    20:00 +15°C° 0.1 mm 2 mps 733 mmHg 94%
    21:00 +15°C° 0.4 mm 2 mps 733 mmHg 95%
    22:00 +14°C° 0.4 mm 2 mps 734 mmHg 96%
    23:00 +14°C° 0.4 mm 2 mps 734 mmHg 97%

    Tomorrow, 26 May, Sunday

    Time Temperature Precipitation Wind Pressure Humidity
    00:00 +13°C° 0 mm 2 mps 734 mmHg 97%
    01:00 +12°C° 0 mm 2 mps 734 mmHg 97%
    02:00 +10°C° 0 mm 2 mps 734 mmHg 96%
    03:00 +10°C° 0 mm 2 mps 734 mmHg 96%
    04:00 +12°C° 0 mm 2 mps 734 mmHg 95%
    05:00 +12°C° 0 mm 2 mps 734 mmHg 95%
    06:00 +13°C° 0 mm 2 mps 734 mmHg 87%
    07:00 +14°C° 0 mm 2 mps 734 mmHg 79%
    08:00 +14°C° 0 mm 3 mps 734 mmHg 72%
    09:00 +16°C° 0 mm 3 mps 735 mmHg 65%
    10:00 +18°C° 0 mm 3 mps 735 mmHg 58%
    11:00 +19°C° 0 mm 3 mps 735 mmHg 51%
    12:00 +19°C° 0 mm 3 mps 734 mmHg 50%
    13:00 +19°C° 0 mm 3 mps 734 mmHg 49%
    14:00 +20°C° 0 mm 3 mps 734 mmHg 47%
    15:00 +20°C° 0 mm 3 mps 734 mmHg 48%
    16:00 +19°C° 0 mm 3 mps 734 mmHg 49%
    17:00 +19°C° 0 mm 3 mps 734 mmHg 51%
    18:00 +17°C° 0 mm 2 mps 734 mmHg 58%
    19:00 +15°C° 0 mm 1 mps 734 mmHg 65%
    20:00 +13°C° 0 mm 1 mps 733 mmHg 73%
    21:00 +13°C° 0 mm 2 mps 734 mmHg 76%
    22:00 +12°C° 0 mm 2 mps 734 mmHg 79%
    23:00 +11°C° 0 mm 3 mps 734 mmHg 82%

    Day after tomorrow, 27 May, Monday

    Time Temperature Precipitation Wind Pressure Humidity
    00:00 +11°C° 0 mm 3 mps 734 mmHg 84%
    01:00 +10°C° 0 mm 3 mps 734 mmHg 86%
    02:00 +10°C° 0 mm 3 mps 734 mmHg 88%
    03:00 +10°C° 0 mm 3 mps 734 mmHg 86%
    04:00 +10°C° 0 mm 4 mps 734 mmHg 84%
    05:00 +10°C° 0 mm 4 mps 735 mmHg 82%
    06:00 +11°C° 0 mm 4 mps 735 mmHg 76%
    07:00 +12°C° 0 mm 5 mps 735 mmHg 70%
    08:00 +13°C° 0 mm 5 mps 735 mmHg 64%
    09:00 +14°C° 0.1 mm 5 mps 736 mmHg 64%
    10:00 +14°C° 0.1 mm 5 mps 736 mmHg 63%
    11:00 +15°C° 0.1 mm 5 mps 736 mmHg 62%
    12:00 +16°C° 0.1 mm 5 mps 736 mmHg 60%
    13:00 +17°C° 0.1 mm 5 mps 736 mmHg 57%
    14:00 +19°C° 0.1 mm 6 mps 737 mmHg 55%
    15:00 +17°C° 0.1 mm 5 mps 737 mmHg 60%
    16:00 +16°C° 0.1 mm 5 mps 737 mmHg 65%
    17:00 +17°C° 0.1 mm 4 mps 737 mmHg 71%
    18:00 +15°C° 0 mm 4 mps 737 mmHg 76%
    19:00 +14°C° 0 mm 3 mps 737 mmHg 81%
    20:00 +14°C° 0 mm 2 mps 737 mmHg 86%
    21:00 +14°C° 1.1 mm 2 mps 737 mmHg 89%
    22:00 +14°C° 1.1 mm 1 mps 737 mmHg 93%
    23:00 +14°C° 1.1 mm 1 mps 737 mmHg 96%

    28 May, Tuesday

    Time Temperature Precipitation Wind Pressure Humidity
    00:00 +14°C° 0.3 mm 1 mps 737 mmHg 97%
    01:00 +14°C° 0.3 mm 2 mps 737 mmHg 97%
    02:00 +14°C° 0.3 mm 2 mps 738 mmHg 98%
    03:00 +14°C° 0.1 mm 2 mps 738 mmHg 97%
    04:00 +15°C° 0.1 mm 2 mps 738 mmHg 96%
    05:00 +14°C° 0.1 mm 3 mps 738 mmHg 95%
    06:00 +16°C° 0 mm 3 mps 739 mmHg 92%
    07:00 +16°C° 0 mm 3 mps 739 mmHg 89%
    08:00 +17°C° 0 mm 3 mps 739 mmHg 85%
    09:00 +18°C° 0 mm 3 mps 740 mmHg 80%
    10:00 +19°C° 0 mm 3 mps 740 mmHg 74%
    11:00 +21°C° 0 mm 4 mps 740 mmHg 69%
    12:00 +22°C° 0 mm 3 mps 740 mmHg 65%
    13:00 +22°C° 0 mm 3 mps 740 mmHg 62%
    14:00 +24°C° 0 mm 3 mps 740 mmHg 58%
    15:00 +24°C° 0.1 mm 3 mps 740 mmHg 61%
    16:00 +24°C° 0.1 mm 2 mps 740 mmHg 63%
    17:00 +24°C° 0.1 mm 2 mps 740 mmHg 66%
    18:00 +21°C° 0.2 mm 2 mps 740 mmHg 74%
    19:00 +20°C° 0.2 mm 2 mps 740 mmHg 82%
    20:00 +18°C° 0.2 mm 2 mps 740 mmHg 90%
    21:00 +18°C° 0.9 mm 2 mps 740 mmHg 92%
    22:00 +18°C° 0.9 mm 2 mps 740 mmHg 94%
    23:00 +17°C° 0.9 mm 3 mps 740 mmHg 96%

    29 May, Wednesday

    Time Temperature Precipitation Wind Pressure Humidity
    00:00 +18°C° 0.9 mm 3 mps 740 mmHg 96%
    01:00 +18°C° 0.9 mm 3 mps 740 mmHg 96%
    02:00 +18°C° 0.9 mm 3 mps 740 mmHg 96%
    03:00 +18°C° 0 mm 3 mps 740 mmHg 95%
    04:00 +18°C° 0 mm 3 mps 740 mmHg 95%
    05:00 +18°C° 0 mm 4 mps 740 mmHg 94%
    06:00 +19°C° 0 mm 4 mps 740 mmHg 89%
    07:00 +20°C° 0 mm 4 mps 740 mmHg 84%
    08:00 +22°C° 0 mm 4 mps 740 mmHg 79%
    09:00 +23°C° 0 mm 5 mps 740 mmHg 71%
    10:00 +26°C° 0 mm 5 mps 740 mmHg 63%
    11:00 +27°C° 0 mm 6 mps 740 mmHg 55%
    12:00 +28°C° 0 mm 6 mps 740 mmHg 52%
    13:00 +28°C° 0 mm 6 mps 740 mmHg 50%
    14:00 +28°C° 0 mm 6 mps 740 mmHg 48%
    15:00 +28°C° 0 mm 5 mps 740 mmHg 50%
    16:00 +27°C° 0 mm 5 mps 740 mmHg 53%
    17:00 +27°C° 0 mm 4 mps 739 mmHg 55%
    18:00 +25°C° 0 mm 4 mps 740 mmHg 61%
    19:00 +23°C° 0 mm 4 mps 740 mmHg 67%
    20:00 +21°C° 0 mm 3 mps 740 mmHg 73%
    21:00 +21°C° 0.1 mm 4 mps 740 mmHg 76%
    22:00 +20°C° 0.1 mm 4 mps 740 mmHg 80%
    23:00 +20°C° 0.1 mm 4 mps 740 mmHg 83%

    30 May, Thursday

    Time Temperature Precipitation Wind Pressure Humidity
    00:00 +19°C° 0.1 mm 4 mps 740 mmHg 87%
    01:00 +19°C° 0.1 mm 4 mps 740 mmHg 90%
    02:00 +19°C° 0.1 mm 3 mps 740 mmHg 94%
    03:00 +19°C° 0 mm 4 mps 740 mmHg 92%
    04:00 +19°C° 0 mm 4 mps 740 mmHg 91%
    05:00 +20°C° 0 mm 4 mps 740 mmHg 90%
    06:00 +21°C° 0.7 mm 4 mps 740 mmHg 87%
    07:00 +21°C° 0.7 mm 5 mps 741 mmHg 85%
    08:00 +22°C° 0.7 mm 5 mps 741 mmHg 83%
    09:00 +22°C° 1 mm 5 mps 741 mmHg 83%
    10:00 +23°C° 1 mm 4 mps 741 mmHg 82%
    11:00 +23°C° 1 mm 4 mps 742 mmHg 82%
    12:00 +23°C° 1.4 mm 4 mps 742 mmHg 83%
    13:00 +22°C° 1.4 mm 3 mps 742 mmHg 84%
    14:00 +22°C° 1.4 mm 3 mps 743 mmHg 85%
    15:00 +21°C° 0.4 mm 2 mps 743 mmHg 84%
    16:00 +21°C° 0.4 mm 2 mps 743 mmHg 84%
    17:00 +20°C° 0.4 mm 2 mps 744 mmHg 84%
    18:00 +19°C° 0 mm 2 mps 744 mmHg 86%
    19:00 +18°C° 0 mm 2 mps 744 mmHg 87%
    20:00 +16°C° 0 mm 2 mps 745 mmHg 89%
    21:00 +15°C° 0 mm 2 mps 745 mmHg 91%
    22:00 +14°C° 0 mm 2 mps 745 mmHg 93%
    23:00 +13°C° 0 mm 1 mps 746 mmHg 94%
    Show more